Home > Weather > Menominee > Past weeks

Flag for USA Past Weather in Menominee, Michigan, USA — Yesterday and Last 2 Weeks

Now
82 °F

Sunny.


Feels Like: 84 °F
Forecast: 65 / 87 °F
Wind: 6 mph from North

Location: Door County Cherryland Airport

Current Time: Jul 26, 2016 at 1:03:36 PM

Latest Report: Jul 26, 2016 at 11:56 AM


Visibility: 10 mi

Pressure: 30.07 "Hg

Humidity: 60%

Dew Point: 67 °F

Location of MenomineeLocation

Past Weather in Menominee — Graph

°F

Menominee Temperature Yesterday

Maximum temperature yesterday: 84 °F (at 4:56 PM)
Minimum temperature yesterday: 68 °F (at 3:56 AM)
Average temperature yesterday: 75 °F

High & Low Weather Summary for the Past Weeks

 TemperatureHumidityPressure
High90 °F (Jul 22, 3:56 PM)100% (Jul 16, 3:56 AM)30.34 "Hg (Jul 16, 3:56 AM)
Low53 °F (Jul 16, 3:56 AM)46% (Jul 22, 1:56 PM)29.66 "Hg (Jul 13, 7:56 PM)
Average73 °F75%29.99 "Hg
* Reported Jul 11 11:56 AM — Jul 26 11:56 AM, Menominee, Weather by CustomWeather, © 2016

Note: Actual official high and low records may vary slightly from our data, if they occured in-between our weather recording intervals... More about our weather records

Advertising

Menominee Weather History for the Previous 24 Hours

Scroll right to see more
 ConditionsComfort  
Time TempWeatherWind HumidityBarometerVisibility
11:56 AM
Tue, Jul 26
82 °FSunny.6 mph60%30.07 "Hg10 mi
10:56 AM80 °FSunny.6 mph62%30.07 "Hg10 mi
9:56 AM79 °FSunny.7 mph65%30.07 "Hg10 mi
8:56 AM77 °FSunny.7 mph71%30.08 "Hg10 mi
7:56 AM73 °FSunny.7 mph76%30.09 "Hg10 mi
6:56 AM69 °FSunny.No wind90%30.08 "Hg10 mi
5:56 AM65 °FClear.5 mph97%30.07 "Hg10 mi
4:56 AM65 °FClear.No wind97%30.07 "Hg10 mi
3:56 AM64 °FClear.3 mph97%30.06 "Hg10 mi
2:56 AM64 °FClear.No wind97%30.06 "Hg10 mi
1:56 AM66 °FClear.No wind93%30.06 "Hg10 mi
12:56 AM69 °FClear.No wind84%30.06 "Hg10 mi
11:56 PM
Mon, Jul 25
68 °FClear.No wind84%30.05 "Hg10 mi
10:56 PM68 °FClear.No wind87%30.03 "Hg10 mi
9:56 PM71 °FClear.3 mph78%29.99 "Hg10 mi
8:56 PM71 °FSunny.3 mph81%29.98 "Hg10 mi
7:56 PM79 °FScattered clouds.3 mph56%29.97 "Hg10 mi
6:56 PM81 °FSunny.3 mph54%29.96 "Hg10 mi
5:56 PM82 °FPassing clouds.6 mph49%29.96 "Hg10 mi
4:56 PM84 °FSunny.9 mph46%29.96 "Hg10 mi
3:56 PM83 °FSunny.7 mph48%29.96 "Hg10 mi
2:56 PM83 °FSunny.12 mph48%29.96 "Hg10 mi
1:56 PM81 °FSunny.12 mph51%29.96 "Hg10 mi
Weather by CustomWeather, © 2016

See weather overviewHow to use our weather pages